Flag for U.S.A. Weather past 2 weeks in Decatur, Illinois, U.S.A.

Now
68 °F

Sunny.


Feels Like: 68 °F
Forecast: 59 / 84 °F
Wind: No wind

Location: Decatur Airport

Current Time: May 27, 2015 at 9:28:13 PM

Latest Report: May 27, 2015 at 8:54 PM


Visibility: 10 mi

Pressure: 30.09 "Hg

Humidity: 68%

Dew point: 57 °F

Location of DecaturLocation

Historic Weather in Decatur — Graph

°F

Decatur temperature yesterday

Maximum temperature yesterday: 78 °F (at 2:54 PM)
Minimum temperature yesterday: 68 °F (at 10:54 AM)
Average temperature yesterday: 72 °F

Past Weeks' High & Low Weather Summary

 TemperatureHumidityPressure
High83 °F (May 15, 2:54 PM)94% (May 16, 4:54 AM)30.45 "Hg (May 16, 4:54 AM)
Low42 °F (May 13, 4:54 AM)28% (May 22, 2:54 PM)29.84 "Hg (May 26, 9:54 AM)
Average65 °F68%30.10 "Hg
* Reported May 12 7:54 PM — May 27 7:54 PM, Decatur, Weather by CustomWeather, © 2015

Note: Actual official high and low records may vary slightly from our data, if they occured in-between our weather recording intervals... More about our weather records

Advertising

Decatur weather history for previous 24 hours

 ConditionsComfort  
Time TempWeatherWind HumidityBarometerVisibility
7:54 PM
Wed, May 27
73 °FSunny.5 mph57%30.07 "Hg10 mi
6:54 PM76 °FSunny.10 mph52%30.06 "Hg10 mi
5:54 PM78 °FPassing clouds.10 mph50%30.05 "Hg10 mi
4:54 PM78 °FScattered clouds.15 mph50%30.04 "Hg10 mi
3:54 PM79 °FScattered clouds.13 mph50%30.04 "Hg10 mi
2:54 PM79 °FPassing clouds.16 mph50%30.04 "Hg10 mi
1:54 PM79 °FScattered clouds.14 mph58%30.02 "Hg10 mi
12:54 PM76 °FBroken clouds.12 mph67%30.02 "Hg10 mi
11:56 AM75 °FPartly sunny.12 mph71%30.03 "Hg10 mi
10:54 AM73 °FCloudy.16 mph74%30.03 "Hg10 mi
9:54 AM71 °FMostly cloudy.15 mph78%30.02 "Hg10 mi
8:54 AM70 °FOvercast.14 mph81%30.02 "Hg10 mi
7:54 AM68 °FMostly cloudy.12 mph84%30.00 "Hg10 mi
6:54 AM67 °FPartly sunny.10 mph85%30.01 "Hg10 mi
5:54 AM66 °FClear.10 mph87%29.98 "Hg10 mi
4:54 AM66 °FPassing clouds.10 mph84%29.97 "Hg10 mi
3:54 AM67 °FPassing clouds.14 mph81%29.95 "Hg10 mi
2:54 AM67 °FClear.14 mph81%29.94 "Hg10 mi
1:54 AM67 °FClear.15 mph79%29.93 "Hg10 mi
12:54 AM68 °FClear.15 mph76%29.93 "Hg10 mi
11:54 PM
Tue, May 26
69 °FPassing clouds.14 mph73%29.94 "Hg10 mi
10:54 PM70 °FClear.16 mph71%29.94 "Hg10 mi
9:54 PM70 °FPassing clouds.13 mph73%29.93 "Hg10 mi
Weather by CustomWeather, © 2015

See weather overviewHow to use our weather pages